Regional Weather Roundup
Issued by NWS

Home | Current Version | Previous Version | Text Only | Print | Product List | Glossary Off
Versions: 1 2 3 4 5 6 7 8 9 10 11 12 13 14 15 16 17 18 19 20 21 22 23 24 25 26 27 28 29 30 31 32 33 34 35 36 37 38 39 40 41 42 43 44 45 46 47 48 49 50

000
ASUS43 KOAX 010310
RWRNE

WEATHER ROUNDUP FOR NEBRASKA
NATIONAL WEATHER SERVICE OMAHA NE
900 PM CST SAT JAN 31 2015

NOTES: SATELLITE DATA IS BEING USED TO AUGMENT CLOUD COVER ABOVE
       12000 FEET.
       "FAIR" INDICATES FEW OR NO CLOUDS BELOW 12,000 FEET WITH NO
       SIGNIFICANT WEATHER AND/OR OBSTRUCTIONS TO VISIBILITY.

  * THESE STATIONS DO NOT REPORT WEATHER SUCH AS RAIN...SNOW OR FOG.

NEZ001>004-019>022-054>056-010400-
NEBRASKA PANHANDLE

CITY           SKY/WX    TMP DP  RH WIND       PRES   REMARKS
SCOTTSBLUFF    LGT SNOW  27  25  92 N14       29.95R FOG     WCI  16
ALLIANCE       CLOUDY    20  17  88 N17       29.94R WCI   5
CHADRON        CLOUDY    21  19  92 NE14      30.02R FOG     WCI   8
KIMBALL        CLOUDY    28  27  99 N17       29.86R WCI  15
SIDNEY         CLOUDY    26  23  88 NE16      29.89R WCI  14
$$

NEZ057>060-069>072-079>082-010400-
SOUTHWEST NEBRASKA

CITY           SKY/WX    TMP DP  RH WIND       PRES   REMARKS
NORTH PLATTE   LGT SNOW  25  21  85 N21G26    29.88R FOG     WCI  11
IMPERIAL       LGT SNOW  27  23  85 N20       29.87R FOG     WCI  13
LEXINGTON      LGT SNOW  30  29  96 N13       29.85R VSB 1   WCI  20
MCCOOK         LGT SNOW  33  31  92 N10       29.83F FOG     WCI  25
OGALLALA       SNOW      24  23  94 N18       29.90R VSB 1/2 WCI  11
$$

NEZ005>010-023>029-035>040-094-010400-
NORTH CENTRAL NEBRASKA

CITY           SKY/WX    TMP DP  RH WIND       PRES   REMARKS
VALENTINE      LGT SNOW  17  14  88 N13       30.02S FOG     WCI   4
AINSWORTH      LGT SNOW  19  17  92 N16       29.98S WCI   4
BROKEN BOW     LGT SNOW  24  20  84 N20G30    29.88R VSB 3/4 WCI  10
O`NEILL        LGT SNOW  25  24  95 N16       29.95F WCI  12
ORD            LGT SNOW  26  23  88 N16       29.89R FOG     WCI  14
THEDFORD       LGT SNOW  20  18  92 N15G22    29.95R VSB 1   WCI   7
$$

NEZ041-046>049-061>064-073>077-083>087-010400-
SOUTH CENTRAL NEBRASKA

CITY           SKY/WX    TMP DP  RH WIND       PRES   REMARKS
GRAND ISLAND   LGT SNOW  31  30  96 NE6       29.85F VSB 3/4 WCI  25
AURORA         LGT SNOW  32  32 100 NE5       29.84F VSB 1   WCI  27
HASTINGS       LGT SNOW  32  30  92 NE6       29.82F VSB 3/4 WCI  26
HEBRON         LGT SNOW  33  31  96 CALM      29.83F
HOLDREGE       LGT SNOW  32  31  96 N9        29.82S WCI  24
KEARNEY *      CLOUDY    30  28  93 N9        29.84S WCI  22
YORK           LGT SNOW  32  32 100 E6        29.85F WCI  26
$$

NEZ011>018-030>034-042>045-010400-
NORTHEAST NEBRASKA

CITY           SKY/WX    TMP DP  RH WIND       PRES   REMARKS
NORFOLK        LGT SNOW  32  31  96 NE8       29.89F FOG     WCI  25
ALBION         LGT SNOW  32  30  93 NE6       29.88F WCI  26
BLAIR          LGT SNOW  33  32  94 NE6       29.90F VSB 1   WCI  28
FREMONT        LGT SNOW  33  33  99 E6        29.90F WCI  28
TEKAMAH        LGT SNOW  33  32  96 NE7       29.93F VSB 1   WCI  27
WAYNE          LGT SNOW  32  31  96 NE16      29.92F WCI  21
$$

NEZ050>053-065>068-078-088>093-010400-
SOUTHEAST NEBRASKA

CITY           SKY/WX    TMP DP  RH WIND       PRES   REMARKS
LINCOLN        LGT SNOW  33  32  96 E3        29.89F VSB 1
OMAHA EPPLEY   LGT SNOW  33  32  96 CALM      29.92F VSB 1
BEATRICE       LGT SNOW  32  32  99 SE6       29.86F WCI  27
FALLS CITY     LGT SNOW  33  33 100 SE8       29.90F FOG     WCI  26
NEBRASKA CITY  LGT SNOW  32  32 100 SE8       29.90F WCI  25
PLATTSMOUTH    LGT SNOW  32  31  96 SE6       29.90F WCI  27
$$

NEZ044-045-051>053-067-010400-
OMAHA AREA

CITY           SKY/WX    TMP DP  RH WIND       PRES   REMARKS
OMAHA EPPLEY   LGT SNOW  33  32  96 CALM      29.92F VSB 1
BLAIR          LGT SNOW  33  32  94 NE6       29.90F VSB 1   WCI  28
FREMONT        LGT SNOW  33  33  99 E6        29.90F WCI  28
MILLARD        LGT SNOW  33  32  96 CALM      29.91F
PLATTSMOUTH    LGT SNOW  32  31  96 SE6       29.90F WCI  27
WAHOO          LGT SNOW  33  31  94 E7        29.89F VSB 1   WCI  27
$$



USA.gov is the U.S. government's official web portal to all federal, state and local government web resources and services.